Погода Туапсе

Погода Туапсе : погода сейчас, прогноз погоды и архив. Всё, что Вы хотите узнать о погоде Туапсе!

Хотите узнать прогноз погоды Туапсе? Тогда Вам сюда: Погода Туапсе

Поиск расширенной информации на нашем сайте:

Другие новости

Новости СМИ2

Главная страница сайта

Новости сайта

02.10.2013

Напоминаем, что на нашем новом сайте вы можете получить высокодетализированные прогнозы погоды по пунктам России, СНГ и мира (включающие важные для авиации метеовеличины, такие как направление и скорость ветра, видимость, явления погоды, количество и форма облачности, нижняя и верхняя граница облачности), а также ознакомиться с разнообразными материалами по авиационной метеорологии и подборкой полезных ссылок на эту тему.

Сайт Метеоцентр.Азия посвящён разработке технологий оптимизации авиаметеорологического обслуживания, включая проектирование и перспективное создание нескольких автоматизированных авиаметеорологических систем:
- система выпуска высокодетальных прогностических карт явлений погоды для нижнего воздушного пространства по России и ближнему зарубежью;
- система верификации прогнозов TAF (выпускаемых синоптиками официальных АМСГ РФ и ближнего зарубежья) и AUTOTAF (выпускаемых сайтом Метеоцентр.Азия) - выявление ошибок, онлайн-сопоставление с фактической погодой METAR, автоматическое внесение коррективов в прогнозы при резком отклонении фактической погоды от прогноза, подсчёт оправдываемости прогнозов по элементам и в целом;
- система обработки, анализа и отображения авиаметеорологической информации для применения провайдерами метеорологической информации.


Погода Туапсе - сегодня

Время (UTC), дата Ветер
(°,м/с) 
Видим.   Явления Облачность Т
(°С)
Тd
(°С)
f(%) Тe
(°С)
Pmin
(гПа)
dP
(гПа)
Po
(мм)
O2
(г/м3)
Тmin Tmax R s Состояние
почвы
03 25.06.17 110 (В) 10 км  слаб. ливневой дождь  10/9 1000 м кучево-дожд., верхняя 
[Cb cap|Ci sp]
+19.5 +13.9 70 +27  1013  1.4  754  281  +19.5       
06 25.06.17 150 (ЮВ) 20000 м  {ливн. осадки}  8/6 1000 м кучево-дожд., верхняя 
[Cb cap|Ci]
+23.3 +16.1 64 +34  1014.3  1.4  755  277  +17.9         
09 25.06.17 150 (ЮВ) 20000 м    6/4 1000 м кучево-дожд., верхняя 
[Cb cap|Ci fib]
+23.7 +15.2 59 +32  1015.8  1.5  757  277           
12 25.06.17 150 (ЮВ) 4{10}  20000 м    8/4 1000 м кучево-дожд., верхняя 
[Cb cap|Ci fib]
+22.8 +16.8 69 +34  1016.3  0.5  757  278           
15 25.06.17 150 (ЮВ) 20000 м    3/3 1000 м 
[Cu Sc]
+22.5 +18.3 77 +37  1016.5  0.2  757  278    +23.9     
18 25.06.17 010 (С) 10 км    ясно 
+20.5 +17.8 85 +34  1016.8  0.2  757  280           
21 25.06.17 030 (СВ) 10 км    ясно 
+18.6 +16.1 85 +30  1016.9  757  282           
00 26.06.17 040 (СВ) 10 км    ясно 
+17.7 +15.4 86 +28  1016.4  -0.5  757  283           
03 26.06.17 100 (В) 20000 м    ясно 
+19.4 +15.3 77 +30  1015.7  -0.6  756  281  +17.3        влажная 
06 26.06.17 210 (ЮЗ) 20000 м    1/1 1000 м 
[Cu hum]
+24.4 +16.7 62 +36  1015.9  0.2  757  276           
09 26.06.17 220 (ЮЗ) 20000 м    3/3 1000 м 
[Cu med, cong]
+25.7 +17.6 61 +39  1015.2  -0.6  756  275           
12 26.06.17 250 (З) 20000 м    1/1 1000 м 
[Cu med, cong]
+26.8 +18.6 61 +42  1013.3  -1.9  755  273           
15 26.06.17 210 (ЮЗ) 20000 м    ясно 
+25.5 +18.6 66 +41  1011.6  -1.7  753  273    +27.5       
18 26.06.17 260 (З) 10 км    ясно 
+22 +19.3 85 +39  1010.8  -0.8  753  276           
21 26.06.17 тихо ()   10 км    ясно 
+21.3 +18.6 85 +37  1010.6  -0.2  753  277           
00 27.06.17 060 (СВ) 10 км    ясно 
+21 +16.5 75 +32  1011  0.4  753  278           
03 27.06.17 тихо ()   20000 м    8/0 верхняя 
[Ci]
+20.2 +16.3 78 +31  1010.8  -0.3  753  279  +19.3        влажная 
06 27.06.17 200 (Ю) 20000 м    8/0 верхняя 
[Ci]
+26.3 +18.1 61 +41  1010.4  -0.2  753  273           
09 27.06.17 220 (ЮЗ) 20000 м    8/0 средняя, верхняя 
[Ac trans|Ci]
+27.2 +19.8 64 +45  1010.7  0.3  753  271           
12 27.06.17 250 (З) 20000 м    4/3 1000 м верхняя 
[Cu med, cong|Ci fib]
+29.1 +19.7 57 +47  1010.3  -0.4  752  269           
15 27.06.17 220 (ЮЗ) 20000 м    3/3 1000 м 
[Cu med, cong]
+26.6 +20.3 68 +46  1010.1  -0.2  752  271    +29.7       
18 27.06.17 тихо ()   10 км    3/3 1000 м верхняя 
[Cu med, cong|Ci sp]
+23.3 +18.4 74 +38  1010.9  0.7  753  275           
21 27.06.17 110 (В) 10 км    6/6 600 м 
[Cu med, cong]
+22.8 +20.2 85 +42  1012.1  1.1  754  275           
00 28.06.17 080 (В) 10 км    10/10 600 м 
[Cu Sc]
+22.6 +19.5 83 +40  1011.7  -0.4  753  276           
03 28.06.17 070 (В) 10 км    10/8 600 м средняя, верхняя 
[Cu Sc|Ac lent|Ci fib]
+23 +19.7 82 +41  1011.9  0.2  754  275  +22.3        влажная 
Время (UTC), дата Ветер
(°,м/с) 
Видим.   Явления Облачность Т
(°С)
Тd
(°С)
f(%) Тe
(°С)
Pmin
(гПа)
dP
(гПа)
Po
(мм)
O2
(г/м3)
Тmin Tmax R s Состояние
почвы

Для получения пояснительной информации подведите курсор к названию столбца.

ПОГОДА Туапсе - архив

Всё, что Вы хотите узнать о погоде Туапсе - удобно и подробно!

Выберите нужную дату (начиная с 1 января 2015* года) и нажмите кнопку "Найти".
Будут отображены архивные сводки погоды по пункту Туапсе, начиная с указанной даты.


Отображать данные в формате CSV (для использования в таблицах Excel)


Внимание! Наш архив погоды предназначен исключительно для личного некоммерческого использования в познавательных целях. Если Вам необходимы официальные справки о состоянии погоды (для производственных, юридических, коммерческих и т.п. целей), обращайтесь в органы Росгидромета.

*Примечание: данная дата относится к архиву по метеостанциям СССР (Россия, СНГ, Балтия).
Архив по метеостанциям Зарубежной Европы и Азии (кроме Китая) хранится 10 дней, по другим регионам земного шара (Китай, Африка, Америка, Австралия, Океания) - 1 день.

Туапсе - район местоположения метеостанции


Название, широта, долгота, высота метеостанции:
Туапсе 44.1°ш. 39.1°д. 61 м над ур. моря [Российская Федерация]

Дополнительная информация

В oтличие oт бoльшинства пoгoдных сайтoв мы публикуем пoдрoбную метеoинфoрмацию в детальнoм прoфессиoнальнoм фoрмате.

Характеристики температуры и влажнoсти вoздуха измеряются на высoте 2 м в тени вдали oт зданий и деревьев.
Скoрoсть ветра измеряется на высoте 10 м (на урoвне рoста челoвека скoрoсть ветра ниже в 1.5-2 раза). Если метеoстанция нахoдится в гoрoде или в лесу, тo скoрoсть ветра занижена на 2-4 м/с пo сравнению с oткрытым местoм. Скoрoсть ветра над акватoриями крупных рек и oзёр, а также на вершинах хoлмoв на 2-5 м/с выше, чем в oбычных услoвиях.
Атмoсфернoе давление в разных тoчках местнoсти мoжет значительнo oтличаться oт давления на метеoстанции, в зависимoсти oт услoвий рельефа (при пoдъёме на 10 м давление пoнижается примернo на 1 мм рт.ст.).